SCP
0 0 0 0 0 0 0 0 0 0 0 0 0 0 0 0 0 0 0 0 0 0 0 0 0 0 0 0 0 0 0 0 0 0 0 0 0 0 0 0 0 0 0
0 0 0 0 0 0 0 0 0 0 0 0 0 0 0 0 0 0 0 0 0 0 0 0 0 0 0 0 0 0 0 0 0 0 0 0 0 0 0 0 0 0 0
0 0 0 0 0 0 0 0 0 0 0 0 0 0 0 0 0 0 0 0 0 0 0 0 0 0 0 0 0 0 0 0 0 0 0 0 0 0 0 0 0 0 0
0 0 0 0 0 0 0 0 0 0 0 0 0 0 0 0 0 0 0 0 0 0 0 0 0 0 0 0 0 0 0 0 0 0 0 0 0 0 0 0 0 0 0
0 0 0 0 0 0 0 0 0 0 0 0 0 0 0 0 0 0 0 0 0 0 0 0 0 0 0 0 0 0 0 0 0 0 0 0 0 0 0 0 0 0 0
0 0 0 0 0 0 0 0 0 0 1 1 0 0 0 0 0 0 0 0 0 0 0 0 0 0 0 0 0 0 0 0 0 0 0 0 0 0 0 0 0 0 0
0 0 0 0 0 0 0 0 1 1 1 1 1 1 0 0 0 0 0 0 0 0 0 0 0 0 0 0 0 0 0 0 0 0 0 0 0 0 0 0 0 0 0
0 0 0 1 1 1 1 1 1 1 1 1 1 1 1 0 0 0 0 0 0 0 0 0 0 0 0 0 0 0 0 0 0 0 0 0 0 0 0 0 0 0 0
0 0 1 1 1 1 1 1 1 1 1 1 1 1 1 1 0 0 0 0 0 0 0 0 0 0 0 0 0 0 0 0 0 0 0 0 0 0 0 0 0 0 0
1 1 1 1 1 1 1 1 1 1 1 1 1 1 1 1 1 0 0 0 0 0 0 0 0 0 0 0 0 0 0 0 0 0 0 0 0 0 0 1 1 0 0
1 1 1 1 1 1 1 1 1 1 1 1 1 1 1 1 1 1 0 0 0 0 0 0 0 0 0 0 0 0 0 0 0 0 0 0 0 0 0 1 1 0 0
1 1 1 1 1 1 1 1 1 1 1 1 1 1 1 1 1 1 1 0 0 0 0 0 0 0 0 0 0 0 0 0 0 0 0 0 0 0 0 0 0 0 0
1 1 1 1 1 1 1 1 1 1 1 1 1 1 1 1 1 1 1 1 1 1 1 1 1 1 1 1 1 1 0 0 0 0 0 0 0 0 0 0 0 0 0
1 1 1 1 1 1 1 1 1 1 1 1 1 1 1 1 1 1 1 1 1 1 1 1 1 1 1 1 1 1 0 0 0 0 0 0 0 0 0 0 0 0 0
1 1 1 1 1 1 1 1 1 1 1 1 1 1 1 1 1 1 1 1 1 1 1 1 1 1 1 1 0 0 0 0 0 0 0 0 0 0 0 0 0 0 0
1 1 1 1 1 1 1 1 1 1 1 1 1 1 1 1 1 1 1 1 1 1 1 1 1 1 0 0 0 0 0 0 0 0 0 0 0 0 0 0 0 0 0
1 1 1 1 1 1 1 1 1 1 1 1 1 1 1 1 1 1 1 1 1 1 1 1 1 0 0 0 0 0 0 0 0 0 0 0 0 0 0 0 0 0 0
1 1 1 1 1 1 1 1 1 1 1 1 1 1 1 1 1 1 1 1 1 1 1 1 0 0 0 0 0 0 0 0 0 0 0 0 0 0 0 0 0 0 0
1 1 1 1 1 1 1 1 1 1 1 1 1 1 1 1 1 1 1 1 1 1 1 1 0 0 0 0 0 0 0 0 0 0 0 0 0 0 0 0 0 0 0
1 1 1 1 1 1 1 1 1 1 1 1 1 1 1 1 1 1 1 1 1 1 1 0 0 0 0 0 0 0 0 0 0 0 0 0 0 0 0 0 0 0 0
1 1 1 1 1 1 1 1 1 1 1 1 1 1 1 1 1 1 1 1 1 1 1 0 0 0 0 0 0 0 0 0 0 0 0 0 0 0 0 0 0 0 0
1 1 1 1 1 1 1 1 1 1 1 1 1 1 1 1 1 1 1 1 1 1 1 0 0 0 0 0 0 0 0 0 0 0 0 0 0 0 0 0 0 0 0
1 1 1 1 1 1 1 1 1 1 1 1 1 1 0 0 0 1 1 1 1 0 0 0 0 0 0 0 0 0 0 0 0 0 0 0 0 0 0 0 0 0 0
1 1 1 1 1 1 1 1 1 1 1 1 0 0 0 0 0 0 0 0 0 0 0 0 0 0 0 0 0 0 0 0 0 0 0 0 0 0 0 0 0 0 0
1 1 1 1 1 1 1 1 1 1 0 0 0 0 0 0 0 0 0 0 0 0 0 0 0 0 0 0 0 0 0 0 0 0 0 0 0 0 0 0 0 0 0
1 1 1 1 1 1 1 1 1 0 0 0 0 0 0 0 0 0 0 0 0 0 0 0 0 0 0 0 0 0 0 0 0 0 0 0 0 0 0 0 0 0 0
Wind_Speed
13 12 12 11 11 10 9 9 8 8 6 5 5 5 4 4 3 3 3 3 3 2 2 1 1 1 0 1 1 1 1 1 1 2 1 2 3 2 3 3 3 4 5
13 13 13 12 12 11 11 10 9 9 8 6 5 4 3 3 3 3 3 4 4 3 3 2 2 1 1 1 1 1 2 1 1 2 2 1 3 3 3 3 4 3 3
15 15 14 14 13 12 12 10 10 10 10 8 6 5 4 4 4 4 4 4 4 4 3 2 2 2 3 1 2 2 2 2 1 1 3 3 2 1 3 3 3 3 3
15 15 15 15 15 14 12 12 11 10 10 9 8 8 6 5 4 4 4 4 5 4 4 4 3 3 2 1 3 2 2 3 3 1 2 3 3 4 1 3 3 4 5
15 15 16 15 15 14 13 12 12 11 10 10 9 8 7 5 4 4 4 4 4 4 5 4 3 3 3 2 3 2 3 3 3 3 2 3 3 4 4 3 3 3 4
14 14 14 14 14 13 13 12 12 11 11 11 10 10 9 7 6 5 5 5 4 4 5 5 4 4 3 3 3 3 4 3 3 4 4 3 3 3 4 5 5 3 3
13 14 14 14 14 14 14 12 13 12 12 11 11 10 10 9 8 7 6 5 4 4 4 5 4 4 3 3 4 3 4 4 4 4 4 4 4 4 5 5 5 5 4
12 13 14 14 14 14 14 14 13 13 12 12 11 10 10 8 7 7 6 5 4 4 3 4 4 4 4 4 3 4 4 4 4 5 4 4 4 4 4 5 5 5 4
11 11 12 13 13 14 14 14 13 13 12 12 11 10 10 9 7 6 6 5 4 4 4 4 4 4 4 3 3 3 4 3 4 4 4 4 4 4 4 4 4 5 5
8 10 11 12 12 13 13 13 13 12 11 11 10 9 9 9 8 7 7 6 5 4 4 4 4 4 4 3 4 3 3 3 3 3 4 4 4 3 3 4 4 5 5
6 7 9 10 11 12 12 12 12 11 10 10 9 8 8 8 8 7 6 5 5 4 4 4 4 4 4 4 3 4 4 4 4 4 4 4 5 4 3 3 3 3 4
5 7 8 9 10 11 11 11 11 11 10 9 9 8 7 7 7 6 5 5 5 5 5 5 4 5 4 4 4 5 4 4 4 4 4 4 3 3 4 3 4 3 3
6 7 7 8 8 9 9 10 10 10 9 9 9 8 7 6 6 6 5 5 6 5 5 5 5 5 4 4 4 4 4 4 4 3 3 3 3 4 3 3 3 3 3
5 6 7 7 7 7 8 8 8 8 9 9 8 7 7 6 6 5 5 5 6 5 5 5 5 4 4 4 3 3 3 3 2 2 2 2 3 3 3 3 3 3 3
5 6 7 7 7 7 7 7 7 7 7 7 7 7 6 5 5 4 4 5 5 5 5 4 4 3 3 2 2 2 2 2 1 1 1 1 2 5 4 4 4 3 3
6 6 7 7 7 7 6 6 6 7 7 7 6 6 6 5 5 4 4 4 4 4 3 3 3 2 1 2 2 1 1 1 1 1 1 0 1 2 2 3 4 5 4
5 6 6 6 5 6 6 6 5 6 7 6 6 6 6 5 5 5 4 4 3 3 3 3 3 2 2 3 3 1 1 0 0 1 1 1 1 1 0 2 2 2 3
4 5 5 5 5 5 5 6 6 6 6 6 6 5 5 5 4 4 4 4 3 3 3 2 2 2 3 4 2 1 2 1 1 1 1 1 2 3 3 1 2 2 3
3 4 4 5 5 5 5 6 6 6 5 5 5 4 4 5 4 4 4 3 3 3 3 3 3 3 3 4 1 1 3 2 3 3 3 3 3 6 5 2 2 2 2
3 4 5 6 6 5 6 6 6 6 5 5 4 4 4 4 4 4 4 4 4 4 3 4 4 4 4 5 3 2 2 3 3 3 4 6 5 5 5 2 2 2 2
4 4 5 5 5 5 6 6 7 6 5 5 5 4 4 4 4 4 4 4 4 4 4 5 5 5 4 5 5 4 1 2 3 3 3 4 5 5 4 3 3 3 3
5 5 5 5 5 5 6 7 7 6 6 6 6 6 5 4 4 5 5 5 5 5 5 5 5 4 4 4 5 6 5 4 3 3 3 5 6 5 5 4 4 3 3
5 5 6 6 5 5 5 7 7 6 7 8 7 6 6 5 5 5 5 5 4 4 4 4 4 4 3 5 6 6 6 5 4 5 6 5 3 3 4 4 3 2 3
5 5 6 6 6 6 6 7 7 7 8 8 7 7 7 7 6 5 4 4 3 3 3 3 3 3 3 4 3 4 5 6 4 4 5 5 4 4 4 3 3 4 4
5 5 5 6 7 7 7 7 7 7 8 7 7 6 7 7 7 7 7 6 7 6 4 4 4 3 4 6 6 4 4 4 4 2 2 3 3 3 4 3 4 3 4
5 5 6 6 7 7 7 7 7 7 7 7 6 5 5 6 6 7 8 13 11 12 12 11 7 7 8 6 7 7 6 4 2 1 3 3 4 4 4 3 3 4 4
Wind_Direction
189 186 188 190 187 190 192 194 200 190 195 196 200 195 193 197 191 188 179 195 207 192 226 267 148 258 170 322 313 290 206 227 287 278 241 192 196 197 207 215 222 204 205
190 189 191 193 193 193 196 197 201 198 201 200 208 210 215 208 202 205 184 209 208 213 206 219 238 222 239 220 259 269 297 308 288 300 296 239 175 189 199 204 218 223 211
195 192 194 197 198 198 198 199 201 201 204 202 203 201 201 218 203 204 203 211 212 218 242 231 251 260 258 227 247 252 263 290 269 285 309 311 348 308 184 215 221 229 245
200 197 196 198 202 202 198 199 199 202 201 201 210 209 214 220 216 213 206 202 211 221 222 235 241 254 269 262 250 222 266 272 276 236 250 288 320 301 285 217 208 225 237
202 200 200 200 202 201 198 196 197 200 199 204 209 214 224 226 220 213 205 219 210 218 224 226 232 239 256 270 286 281 268 267 276 284 271 256 248 255 277 288 279 251 240
202 201 199 198 202 201 199 196 193 198 199 203 208 213 223 227 228 220 215 212 208 214 221 228 226 233 245 250 257 264 253 264 280 283 282 275 269 268 271 276 275 273 262
201 198 194 196 198 199 199 197 194 197 199 202 207 209 216 219 223 226 221 227 224 215 211 229 227 236 235 245 254 254 275 268 265 265 272 276 271 270 272 278 286 285 274
200 198 194 194 195 197 197 196 196 198 198 201 205 208 211 216 221 221 235 224 234 235 214 222 227 235 239 242 241 256 254 258 264 268 273 272 268 270 269 274 284 282 271
198 196 192 191 191 193 194 194 194 197 199 200 201 205 209 218 223 218 224 234 228 229 217 223 226 232 235 242 246 256 264 265 264 265 254 259 265 258 266 267 270 279 286
194 190 188 188 188 189 189 190 192 195 197 197 201 201 205 211 217 222 223 230 229 229 226 227 227 227 229 230 240 248 248 252 260 270 282 279 276 280 274 269 262 263 274
175 180 180 181 184 184 183 186 188 190 192 195 198 205 203 205 210 216 217 218 225 218 218 225 228 231 233 231 233 252 257 254 261 267 268 269 285 286 284 282 278 273 268
153 161 166 168 173 176 178 180 184 187 188 187 192 201 204 203 204 206 210 213 215 218 215 219 227 234 236 235 238 251 259 258 261 264 267 270 273 274 283 288 287 286 283
134 141 148 155 163 167 171 175 181 183 183 181 189 194 195 193 198 202 203 208 212 217 219 217 223 232 234 232 237 249 262 264 268 270 266 274 287 287 287 286 290 288 278
128 134 138 142 147 151 159 166 174 176 177 178 183 184 186 187 192 198 200 206 212 214 218 222 224 227 232 233 234 238 251 253 261 265 271 289 294 298 298 289 289 288 284
129 132 136 137 140 142 148 156 161 163 167 173 178 176 177 178 184 187 195 201 205 210 212 211 214 217 224 242 239 226 223 233 249 259 297 356 26 26 359 334 332 319 305
132 132 135 136 139 140 145 147 154 158 165 173 174 170 171 174 181 184 187 188 190 194 197 196 194 186 182 80 65 301 245 230 242 275 300 19 99 82 84 38 23 4 337
136 136 134 135 138 139 140 141 145 152 160 163 161 164 165 171 177 173 176 177 171 163 165 162 158 159 109 90 101 91 249 239 320 331 326 325 30 71 86 119 121 61 24
144 142 134 126 124 126 129 130 136 147 148 147 150 155 161 162 161 163 161 156 155 145 141 137 127 113 83 84 110 141 166 134 82 47 21 15 14 12 352 18 49 45 45
150 147 141 126 118 118 121 128 128 130 135 138 142 145 149 147 149 152 148 143 138 130 128 119 104 95 79 66 62 214 147 120 95 70 44 29 43 24 4 12 26 33 59
137 136 132 123 118 121 126 128 121 118 120 122 128 131 135 139 141 140 137 129 125 120 117 105 95 90 75 58 32 303 140 120 113 98 78 58 43 32 13 15 22 23 18
122 122 123 119 117 127 130 123 113 111 116 119 121 118 121 125 126 123 120 124 124 116 110 104 97 86 76 77 48 17 62 95 98 86 78 70 65 50 30 19 32 5 337
120 124 122 114 113 121 123 115 106 106 112 112 111 108 109 111 110 115 115 115 118 117 113 109 102 93 82 66 68 61 51 31 76 66 65 75 75 67 56 46 15 333 323
123 127 125 116 109 110 112 110 107 108 107 103 100 99 98 95 101 108 114 117 117 116 114 113 105 95 90 95 92 87 77 60 68 70 71 74 92 107 87 58 2 357 28
126 129 125 120 113 108 106 107 111 111 110 106 102 101 98 94 87 81 83 82 79 89 98 97 97 92 78 64 71 97 109 116 112 104 109 116 96 81 71 66 50 43 35
125 128 125 120 114 109 110 113 116 117 112 107 104 103 99 94 87 72 52 57 55 39 44 66 71 68 72 44 27 24 50 55 70 82 103 88 80 70 61 53 45 37 35
124 123 122 118 116 118 119 123 125 127 125 123 123 120 120 115 113 106 88 56 60 61 56 50 51 70 66 62 57 55 52 43 354 36 81 70 62 53 45 38 40 40 31